EW8665 Weather Reports


time (UTC)temp
C
wind
direction
speed
KPH
gust
KPH
rain 1hr
cm
rain 24hr
cm
rain mn
cm
humidity
%
barometer
mb
20260507150006 16 136 4.8 14.5 0.00 1.40 0.58 62 1013.6
20260507145505 16 126 4.8 11.3 0.00 1.40 0.58 63 1013.8
20260507145005 16 109 4.8 17.7 0.00 1.40 0.58 62 1013.9
20260507144005 16 70 6.4 14.5 0.00 1.40 0.58 63 1013.9
20260507143505 16 71 4.8 14.5 0.00 1.40 0.58 65 1013.9
20260507143006 16 59 6.4 11.3 0.00 1.40 0.58 65 1013.9
20260507142505 16 57 6.4 17.7 0.00 1.40 0.58 62 1014.0
20260507142005 16 63 8.0 17.7 0.00 1.40 0.58 65 1014.0
20260507141505 16 60 8.0 12.9 0.00 1.40 0.58 65 1013.9
20260507140505 16 53 8.0 12.9 0.00 1.42 0.58 65 1014.0
20260507140006 15 54 8.0 12.9 0.00 1.42 0.58 66 1014.0
20260507135506 15 51 8.0 12.9 0.00 1.42 0.58 67 1013.9
20260507135005 15 50 8.0 14.5 0.00 1.42 0.58 67 1014.0
20260507134506 15 52 8.0 14.5 0.00 1.45 0.58 67 1014.1
20260507134005 15 51 8.0 14.5 0.00 1.45 0.58 66 1014.2
20260507133005 15 41 4.8 9.7 0.00 1.45 0.58 69 1014.0
20260507132505 15 33 6.4 11.3 0.00 1.45 0.58 69 1014.2
20260507132005 15 23 6.4 11.3 0.00 1.45 0.58 70 1014.1
20260507131505 14 18 6.4 11.3 0.00 1.45 0.58 72 1014.1
20260507131005 14 11 6.4 16.1 0.00 1.45 0.58 75 1014.1
20260507130508 14 8 6.4 16.1 0.00 1.47 0.58 76 1014.2
20260507130005 13 13 8.0 16.1 0.00 1.47 0.58 76 1014.3
20260507125505 13 18 9.7 17.7 0.00 1.47 0.58 76 1014.2
20260507125005 13 29 11.3 17.7 0.00 1.50 0.58 76 1014.3
20260507124006 13 47 9.7 16.1 0.00 1.50 0.58 76 1014.1
20260507123005 14 82 11.3 17.7 0.00 1.52 0.58 74 1014.1
20260507122505 15 233 6.4 14.5 0.00 1.55 0.58 71 1014.1
20260507122005 15 283 6.4 17.7 0.00 1.55 0.58 69 1013.9
20260507120504 15 328 4.8 12.9 0.00 1.60 0.58 63 1013.6
20260507120006 15 337 4.8 11.3 0.00 1.73 0.58 61 1013.5
20260507115505 15 333 4.8 11.3 0.00 1.73 0.58 62 1013.7
20260507115005 15 312 6.4 12.9 0.00 1.75 0.58 65 1013.6
20260507114505 15 300 6.4 12.9 0.00 1.75 0.58 66 1013.7
20260507114005 14 301 4.8 11.3 0.00 1.78 0.58 65 1013.8
20260507113505 14 289 3.2 9.7 0.00 1.78 0.58 65 1013.7
20260507113006 14 277 3.2 9.7 0.00 1.78 0.58 65 1013.8
20260507112505 14 268 3.2 8.0 0.00 1.80 0.58 66 1013.8
20260507112005 14 267 4.8 11.3 0.00 1.80 0.58 66 1013.6
20260507111506 14 258 4.8 11.3 0.00 1.80 0.58 65 1013.8
20260507110505 14 251 4.8 11.3 0.00 1.80 0.58 66 1013.9
20260507110005 14 246 4.8 11.3 0.00 1.80 0.58 66 1013.8
20260507105505 14 253 4.8 11.3 0.00 1.80 0.58 68 1013.9
20260507105006 14 252 3.2 8.0 0.00 1.83 0.58 69 1014.1
20260507104505 14 258 3.2 8.0 0.00 1.83 0.58 69 1013.9
20260507104005 13 251 4.8 9.7 0.00 1.83 0.58 70 1014.1
20260507103005 13 247 6.4 16.1 0.00 1.83 0.58 70 1014.1
20260507102505 13 241 8.0 16.1 0.00 1.83 0.58 69 1014.0
20260507102008 14 233 8.0 16.1 0.00 1.83 0.58 68 1014.2
20260507101506 14 212 4.8 11.3 0.00 1.83 0.58 68 1014.3
20260507101005 15 215 4.8 9.7 0.00 1.83 0.58 69 1014.1
20260507100505 15 216 6.4 11.3 0.00 1.83 0.58 72 1014.1
20260507100005 15 207 6.4 16.1 0.00 1.83 0.58 73 1014.2
20260507095006 13 227 4.8 11.3 0.00 1.83 0.58 74 1014.2
20260507094505 13 238 4.8 11.3 0.00 1.83 0.58 76 1014.2
20260507094005 13 243 4.8 11.3 0.00 1.83 0.58 76 1014.2
20260507093505 13 243 4.8 11.3 0.00 1.83 0.58 76 1014.0
20260507093005 12 251 6.4 14.5 0.00 1.83 0.58 76 1014.1
20260507092006 12 251 4.8 12.9 0.00 1.83 0.58 76 1013.8
20260507091505 12 252 4.8 9.7 0.00 1.83 0.58 77 1014.0
20260507091005 12 253 4.8 9.7 0.00 1.83 0.58 77 1013.8
20260507090505 12 248 6.4 9.7 0.00 1.83 0.58 78 1013.8
20260507090006 12 248 6.4 9.7 0.00 1.83 0.58 80 1013.7
20260507085505 12 237 4.8 9.7 0.00 1.83 0.58 78 1013.7
20260507085005 12 237 4.8 9.7 0.00 1.83 0.58 78 1013.6
20260507084505 12 248 3.2 9.7 0.00 1.83 0.58 80 1013.5
20260507084005 12 244 3.2 8.0 0.00 1.83 0.58 84 1013.5
20260507083005 12 246 4.8 9.7 0.00 1.83 0.58 84 1013.6
20260507082505 11 249 6.4 12.9 0.00 1.83 0.58 84 1013.4
20260507082004 11 251 6.4 12.9 0.00 1.83 0.58 85 1013.6
20260507081505 11 243 4.8 11.3 0.00 1.83 0.58 85 1013.5
20260507081005 11 252 4.8 11.3 0.00 1.83 0.58 85 1013.7
20260507080505 11 251 3.2 9.7 0.00 1.83 0.58 86 1013.4
20260507080005 11 257 3.2 11.3 0.00 1.83 0.58 86 1013.4
20260507075505 11 255 4.8 11.3 0.00 1.83 0.58 87 1013.3
20260507075005 11 252 4.8 8.0 0.00 1.83 0.58 88 1013.3
20260507074505 11 249 6.4 8.0 0.00 1.83 0.58 87 1013.4
20260507074005 11 235 4.8 9.7 0.00 1.83 0.58 87 1013.5
20260507073005 11 230 3.2 11.3 0.00 1.83 0.58 87 1013.2
20260507072505 11 236 3.2 4.8 0.00 1.83 0.58 87 1013.3
20260507072008 11 238 3.2 6.4 0.00 1.83 0.58 88 1013.3
20260507071505 11 239 4.8 9.7 0.00 1.83 0.58 89 1013.1
20260507071006 11 245 4.8 11.3 0.00 1.83 0.58 89 1013.1
20260507070505 10 250 4.8 11.3 0.00 1.83 0.58 89 1013.1
20260507065505 10 242 3.2 8.0 0.00 1.83 0.58 90 1013.1
20260507065005 10 238 3.2 8.0 0.00 1.83 0.58 90 1013.1
20260507064505 10 232 4.8 8.0 0.00 1.83 0.58 90 1013.0
20260507063005 10 230 4.8 9.7 0.03 1.83 0.58 91 1013.0
20260507062505 10 231 4.8 14.5 0.03 1.83 0.58 91 1013.0
20260507062005 10 229 6.4 14.5 0.03 1.83 0.58 92 1012.9
20260507061506 10 236 4.8 14.5 0.03 1.83 0.58 93 1012.9
20260507061005 10 230 3.2 9.7 0.03 1.83 0.58 94 1012.9
20260507060505 10 227 3.2 6.4 0.03 1.83 0.58 94 1012.8
20260507060005 10 234 3.2 9.7 0.03 1.83 0.58 94 1012.7
20260507055005 10 221 4.8 9.7 0.03 1.80 0.56 94 1012.7
20260507054005 10 213 1.6 4.8 0.05 1.80 0.56 95 1012.5
20260507053505 10 219 3.2 4.8 0.05 1.80 0.56 95 1012.5
20260507053005 10 221 3.2 8.0 0.05 1.80 0.56 95 1012.4
20260507052005 10 247 1.6 4.8 0.05 1.80 0.56 95 1012.4
20260507051004 9 244 1.6 9.7 0.05 1.78 0.56 94 1012.2
20260507050505 9 241 4.8 16.1 0.05 1.78 0.56 94 1012.2
20260507045505 9 237 3.2 8.0 0.03 1.78 0.53 94 1012.0
20260507045005 9 237 3.2 8.0 0.05 1.78 0.53 94 1012.0
20260507044504 9 236 3.2 8.0 0.05 1.78 0.53 94 1011.9
20260507044005 9 238 4.8 12.9 0.03 1.78 0.53 94 1011.9
20260507043505 9 246 4.8 12.9 0.03 1.75 0.51 94 1011.9
20260507043005 9 239 3.2 11.3 0.03 1.75 0.51 95 1011.7
20260507042005 9 230 3.2 9.7 0.05 1.75 0.51 95 1011.8
20260507041505 9 235 4.8 12.9 0.03 1.75 0.51 95 1011.7
20260507041005 9 231 4.8 12.9 0.05 1.75 0.51 95 1011.8
20260507040505 9 227 3.2 4.8 0.05 1.75 0.51 95 1011.8
20260507040005 9 229 3.2 6.4 0.05 1.75 0.51 95 1011.7
20260507035505 9 239 4.8 6.4 0.05 1.75 0.51 95 1011.8
20260507034505 9 228 3.2 8.0 0.05 1.73 0.51 95 1011.6
20260507034006 9 228 3.2 8.0 0.05 1.73 0.51 95 1011.6
20260507033505 9 232 3.2 6.4 0.05 1.73 0.51 95 1011.6
20260507032505 9 215 3.2 8.0 0.05 1.73 0.48 95 1011.2
20260507032005 10 215 3.2 6.4 0.05 1.73 0.48 95 1011.4
20260507031504 10 216 3.2 6.4 0.08 1.73 0.48 95 1011.4
20260507031005 10 202 3.2 6.4 0.05 1.70 0.46 95 1011.6
20260507030005 10 202 4.8 12.9 0.08 1.68 0.46 96 1011.4
20260507025505 10 210 4.8 8.0 0.08 1.68 0.46 96 1011.4
20260507025004 10 227 4.8 8.0 0.10 1.68 0.46 96 1011.4
20260507024504 10 236 3.2 8.0 0.10 1.68 0.46 96 1011.4
20260507024005 9 248 3.2 6.4 0.10 1.68 0.43 96 1011.4
20260507023505 9 246 3.2 6.4 0.10 1.68 0.43 96 1011.4
20260507023005 9 243 4.8 14.5 0.13 1.68 0.43 96 1011.3
20260507022504 9 235 4.8 14.5 0.13 1.68 0.43 96 1011.1
20260507022005 9 233 3.2 9.7 0.13 1.65 0.43 96 1011.2
20260507021005 9 235 6.4 11.3 0.13 1.65 0.41 96 1011.2
20260507020505 9 242 6.4 14.5 0.13 1.63 0.38 96 1010.9
20260507020005 9 252 6.4 14.5 0.13 1.63 0.38 95 1011.0
20260507015505 9 254 4.8 11.3 0.13 1.60 0.38 95 1011.0
20260507015005 9 257 6.4 12.9 0.13 1.60 0.36 95 1011.2
20260507014505 9 257 6.4 14.5 0.10 1.57 0.33 95 1011.1
20260507014005 9 256 8.0 14.5 0.10 1.57 0.33 95 1011.0
20260507013505 9 253 8.0 12.9 0.10 1.57 0.33 95 1011.1
20260507013005 9 251 6.4 12.9 0.10 1.55 0.33 95 1011.1
20260507012505 9 250 3.2 11.3 0.10 1.55 0.30 95 1010.9
20260507012004 9 248 3.2 8.0 0.08 1.52 0.28 95 1011.1
20260507011505 9 246 4.8 8.0 0.08 1.52 0.28 94 1010.9
20260507011005 9 248 4.8 9.7 0.08 1.52 0.28 94 1011.0
20260507010505 9 258 4.8 9.7 0.08 1.50 0.28 93 1010.7
20260507010004 9 253 4.8 8.0 0.08 1.50 0.25 93 1010.8
20260507005505 9 251 4.8 8.0 0.05 1.50 0.25 93 1011.0
20260507005005 9 243 4.8 9.7 0.05 1.47 0.23 92 1011.0
20260507004505 9 242 4.8 9.7 0.05 1.47 0.23 92 1011.0
20260507004004 9 243 3.2 9.7 0.05 1.47 0.23 92 1010.9
20260507003505 9 229 3.2 9.7 0.05 1.47 0.23 92 1011.1
20260507003005 9 230 4.8 9.7 0.05 1.47 0.23 91 1010.9
20260507002505 9 233 4.8 14.5 0.05 1.45 0.20 91 1011.0
20260507002004 9 234 4.8 14.5 0.05 1.45 0.20 90 1011.0
20260507001505 9 242 4.8 14.5 0.05 1.45 0.20 90 1010.8
20260507000505 9 254 4.8 9.7 0.08 1.45 0.20 90 1011.1
20260507000005 9 250 4.8 9.7 0.08 1.45 0.18 90 1011.1
20260506235505 9 251 4.8 12.9 0.08 1.45 0.18 90 1011.1
20260506235005 9 248 4.8 12.9 0.10 1.45 0.18 90 1011.0
20260506234505 9 243 6.4 22.5 0.10 1.42 0.18 90 1011.1
20260506234005 9 234 8.0 22.5 0.10 1.42 0.18 90 1011.2
20260506233505 9 231 8.0 19.3 0.10 1.42 0.18 90 1011.2
20260506233005 9 232 6.4 12.9 0.10 1.42 0.18 91 1011.0
20260506232505 9 224 4.8 14.5 0.10 1.40 0.15 91 1011.2
20260506232004 9 227 6.4 14.5 0.10 1.40 0.15 91 1011.2
20260506231505 9 227 4.8 12.9 0.13 1.40 0.15 91 1011.2
20260506231005 9 233 3.2 9.7 0.13 1.40 0.15 91 1011.2
20260506230505 9 222 3.2 11.3 0.13 1.37 0.13 91 1011.0
20260506225505 9 227 4.8 14.5 0.10 1.35 0.10 90 1011.0
20260506224505 9 228 3.2 8.0 0.10 1.35 0.10 90 1011.0
20260506224005 10 219 3.2 12.9 0.08 1.32 0.08 90 1011.1
20260506223505 9 221 4.8 12.9 0.08 1.32 0.08 90 1011.0
20260506223006 10 215 6.4 17.7 0.05 1.32 0.05 90 1011.1
20260506222505 10 211 6.4 17.7 0.05 1.30 0.05 90 1011.1
20260506222007 10 209 3.2 8.0 0.05 1.27 0.03 90 1011.0
20260506221505 10 214 3.2 12.9 0.03 1.27 0.03 90 1010.9
20260506221007 10 229 3.2 12.9 0.03 1.27 0.00 89 1010.9
20260506220505 10 235 6.4 14.5 0.00 1.24 0.00 89 1010.8
20260506220008 10 242 6.4 14.5 0.00 1.24 0.00 89 1010.8
20260506215505 10 246 4.8 12.9 0.00 1.24 1.24 89 1010.7
20260506215007 10 247 6.4 9.7 0.00 1.24 1.24 89 1010.7
20260506214505 10 247 6.4 11.3 0.00 1.24 1.24 89 1010.8
20260506214005 10 245 4.8 12.9 0.03 1.24 1.24 89 1010.6
20260506213504 10 240 6.4 14.5 0.03 1.24 1.24 89 1010.6
20260506213004 10 236 6.4 14.5 0.00 1.24 1.24 90 1010.6
20260506212505 10 233 4.8 14.5 0.03 1.24 1.24 90 1010.7
20260506212005 10 231 4.8 12.9 0.03 1.24 1.24 90 1010.7
20260506211504 10 218 3.2 11.3 0.05 1.24 1.24 91 1010.5
20260506210505 10 221 4.8 9.7 0.05 1.24 1.24 91 1010.4
20260506210005 10 215 4.8 9.7 0.08 1.24 1.24 91 1010.5
20260506205004 10 212 8.0 12.9 0.10 1.24 1.24 92 1010.4
20260506204004 10 218 6.4 16.1 0.10 1.22 1.22 93 1010.3
20260506203505 10 218 3.2 11.3 0.13 1.22 1.22 93 1010.4
20260506203005 10 225 3.2 11.3 0.13 1.22 1.22 93 1010.4
20260506202505 10 238 3.2 17.7 0.13 1.22 1.22 93 1010.3
20260506202005 10 233 6.4 17.7 0.15 1.22 1.22 93 1010.3
20260506201505 10 228 4.8 17.7 0.13 1.19 1.19 93 1010.4
20260506201004 10 235 4.8 11.3 0.13 1.19 1.19 92 1010.2
20260506200507 10 233 6.4 16.1 0.13 1.17 1.17 92 1010.2
20260506200005 10 231 8.0 16.1 0.13 1.17 1.17 92 1010.2
20260506195507 10 224 8.0 14.5 0.13 1.17 1.17 92 1010.2
20260506195005 10 231 6.4 12.9 0.10 1.14 1.14 92 1010.0
20260506194505 10 231 4.8 11.3 0.10 1.12 1.12 92 1010.2
20260506194005 10 230 4.8 9.7 0.13 1.12 1.12 92 1010.0
20260506193004 10 240 4.8 11.3 0.10 1.09 1.09 92 1010.1
20260506192505 10 248 4.8 11.3 0.10 1.09 1.09 92 1010.0
20260506191504 10 243 3.2 4.8 0.13 1.07 1.07 92 1009.8
20260506191005 10 248 1.6 4.8 0.13 1.07 1.07 92 1009.8
20260506190505 10 241 3.2 11.3 0.15 1.07 1.07 92 1009.7
20260506190005 10 244 3.2 11.3 0.15 1.04 1.04 92 1009.5
20260506185504 10 241 3.2 8.0 0.15 1.04 1.04 92 1009.6
20260506185005 10 240 4.8 9.7 0.15 1.04 1.04 92 1009.6
20260506184505 10 238 3.2 9.7 0.15 1.02 1.02 92 1009.4
20260506184004 10 240 3.2 6.4 0.15 0.99 0.99 91 1009.5
20260506183504 10 241 4.8 14.5 0.15 0.99 0.99 92 1009.4
20260506183005 10 234 4.8 14.5 0.18 0.99 0.99 92 1009.3
20260506182505 10 228 3.2 6.4 0.18 0.99 0.99 92 1009.2
20260506182004 10 228 3.2 8.0 0.18 0.97 0.97 92 1009.3
20260506180505 10 221 4.8 11.3 0.18 0.91 0.91 92 1009.2
20260506180005 10 219 3.2 6.4 0.18 0.91 0.89 92 1009.2
20260506175505 10 222 3.2 6.4 0.18 0.89 0.89 92 1009.1
20260506175005 10 233 4.8 8.0 0.18 0.89 0.89 92 1009.0
20260506174505 10 233 6.4 8.0 0.18 0.89 0.86 92 1008.8
20260506174004 11 231 3.2 8.0 0.18 1.02 0.84 92 1009.0
20260506173504 11 236 3.2 6.4 0.18 0.99 0.84 91 1008.7
20260506173005 10 236 4.8 8.0 0.18 0.99 0.81 91 1008.6
20260506172005 11 232 6.4 12.9 0.18 0.97 0.79 91 1008.6
20260506171504 11 236 6.4 12.9 0.18 0.94 0.76 91 1008.4
20260506171004 11 239 4.8 12.9 0.18 0.94 0.74 91 1008.3
20260506170505 11 246 3.2 12.9 0.18 0.91 0.74 91 1008.4
20260506170005 11 251 3.2 8.0 0.18 0.89 0.71 91 1008.3
20260506165504 11 254 4.8 12.9 0.18 0.89 0.71 91 1008.1
20260506165004 11 252 4.8 12.9 0.20 0.89 0.71 91 1008.2
20260506164508 11 237 6.4 11.3 0.18 0.86 0.69 90 1008.2
20260506163505 11 231 3.2 11.3 0.18 0.84 0.66 90 1008.2
20260506163004 11 227 1.6 9.7 0.18 0.81 0.64 90 1008.1
20260506162505 11 217 1.6 6.4 0.18 0.81 0.64 90 1008.0
20260506162004 11 227 4.8 11.3 0.18 0.79 0.61 89 1008.1
20260506161504 11 227 3.2 11.3 0.15 0.76 0.58 89 1008.2
20260506161005 11 215 3.2 6.4 0.13 0.74 0.56 89 1008.0
20260506155004 11 223 4.8 14.5 0.05 0.69 0.51 87 1008.1
20260506154504 11 224 4.8 14.5 0.05 0.66 0.48 87 1008.0
20260506154006 11 230 4.8 9.7 0.05 0.66 0.48 86 1008.1
20260506153505 11 230 4.8 12.9 0.05 0.66 0.46 86 1007.8
20260506153004 11 226 4.8 12.9 0.03 0.64 0.46 86 1007.9
20260506152505 11 226 4.8 11.3 0.03 0.64 0.46 86 1007.9
20260506152005 11 225 4.8 11.3 0.00 0.61 0.43 85 1007.8
20260506151504 11 247 4.8 8.0 0.03 0.61 0.43 86 1007.9
20260506151004 11 240 4.8 11.3 0.03 0.61 0.43 85 1007.7
20260506150505 11 237 4.8 11.3 0.03 0.61 0.43 85 1007.9